This is the latest recevied weather packets stored in our database for station/object DG1JLA-3. If no packets are shown the sender has not sent any weather packets the latest 1 day(s).
| Time | Temp. | Humidity | Pressure | Rain* | Wind** | Luminosity | Snow |
|---|---|---|---|---|---|---|---|
| 1777999790 | 16.67° C | 78% | 1008.7 hPa | 0 mm | 0.89 m/s, 76° | - | - |
| 1777999490 | 16.67° C | 78% | 1008.5 hPa | 0 mm | 1.34 m/s, 34° | - | - |
| 1777999190 | 16.67° C | 78% | 1008.5 hPa | 0 mm | 1.34 m/s, 55° | - | - |
| 1777998890 | 16.67° C | 77% | 1008.5 hPa | 0 mm | 1.34 m/s, 38° | - | - |
| 1777998590 | 16.67° C | 77% | 1008.5 hPa | 0 mm | 1.79 m/s, 23° | - | - |
| 1777998290 | 16.67° C | 77% | 1008.5 hPa | 0 mm | 1.79 m/s, 63° | - | - |
| 1777997990 | 16.67° C | 77% | 1008.7 hPa | 0 mm | 1.79 m/s, 351° | - | - |
| 1777997690 | 16.67° C | 76% | 1008.8 hPa | 0 mm | 1.79 m/s, 30° | - | - |
| 1777997390 | 17.22° C | 76% | 1008.7 hPa | 0 mm | 1.79 m/s, 20° | - | - |
| 1777997090 | 17.22° C | 76% | 1008.8 hPa | 0 mm | 1.79 m/s, 68° | - | - |
| 1777996790 | 17.22° C | 76% | 1008.8 hPa | 0 mm | 1.79 m/s, 345° | - | - |
| 1777996490 | 17.22° C | 75% | 1008.9 hPa | 0 mm | 1.79 m/s, 47° | - | - |
| 1777996190 | 17.22° C | 75% | 1008.8 hPa | 0 mm | 1.79 m/s, 56° | - | - |
| 1777995890 | 17.22° C | 75% | 1008.7 hPa | 0 mm | 1.79 m/s, 39° | - | - |
| 1777995590 | 17.22° C | 75% | 1008.8 hPa | 0 mm | 1.79 m/s, 44° | - | - |
| 1777995290 | 17.22° C | 75% | 1008.8 hPa | 0 mm | 1.79 m/s, 28° | - | - |
| 1777994990 | 17.22° C | 75% | 1008.9 hPa | 0 mm | 2.24 m/s, 11° | - | - |
| 1777994690 | 17.22° C | 75% | 1009 hPa | 0 mm | 2.24 m/s, 18° | - | - |
| 1777994390 | 17.22° C | 74% | 1009.1 hPa | 0 mm | 2.24 m/s, 58° | - | - |
| 1777994090 | 17.22° C | 75% | 1009.1 hPa | 0 mm | 2.24 m/s, 28° | - | - |
| 1777993790 | 17.22° C | 74% | 1009.1 hPa | 0 mm | 2.24 m/s, 43° | - | - |
| 1777993490 | 17.22° C | 74% | 1009.3 hPa | 0 mm | 1.79 m/s, 54° | - | - |
| 1777993190 | 17.22° C | 74% | 1009.4 hPa | 0 mm | 1.79 m/s, 54° | - | - |
| 1777992890 | 17.22° C | 73% | 1009.4 hPa | 0 mm | 1.79 m/s, 59° | - | - |
| 1777992590 | 17.78° C | 73% | 1009.3 hPa | 0 mm | 2.24 m/s, 57° | - | - |
* Rain latest hour (hover to see other rain measurements)
** Current wind speed in m/s (hover to see current wind gust speed)